GW5874 Weather Reports


time (UTC)temp
C
wind
direction
speed
KPH
gust
KPH
rain 1hr
cm
rain 24hr
cm
rain mn
cm
humidity
%
barometer
mb
20260902002718 30 216 0.0 0.0 0.00 0.00 0.00 59 1014.2
20260902002218 30 274 0.0 0.0 0.00 0.00 0.00 56 1014.4
20260902001713 31 254 0.0 0.0 0.00 0.00 0.00 57 1014.3
20260902001213 31 264 0.0 0.0 0.00 0.00 0.00 52 1014.5
20260902000708 32 256 0.0 0.0 0.00 0.00 0.00 51 1014.5
20260902000204 32 276 0.0 0.0 0.00 0.00 0.00 49 1014.5
20260901235703 33 253 0.0 0.0 0.00 0.00 0.00 47 1014.6
20260901235158 33 266 0.0 0.0 0.00 0.00 0.00 45 1014.6
20260901234657 34 263 0.0 1.6 0.00 0.00 0.00 43 1014.5
20260901234152 34 265 0.0 0.0 0.00 0.00 0.00 44 1014.6
20260901233647 33 253 0.0 0.0 0.00 0.00 0.00 42 1014.5
20260901233143 34 249 0.0 0.0 0.00 0.00 0.00 42 1014.7
20260901232638 34 218 1.6 1.6 0.00 0.00 0.00 42 1014.8
20260901232133 34 247 0.0 1.6 0.00 0.00 0.00 41 1014.9
20260901231630 34 259 0.0 0.0 0.00 0.00 0.00 42 1014.7
20260901231126 33 242 0.0 1.6 0.00 0.00 0.00 42 1014.7
20260901230622 35 147 3.2 4.8 0.00 0.00 0.00 46 1014.7
20260901230121 35 243 0.0 1.6 0.00 0.00 0.00 38 1014.8
20260901225616 35 237 0.0 1.6 0.00 0.00 0.00 37 1014.8
20260901225116 36 211 1.6 1.6 0.00 0.00 0.00 37 1014.7
20260901224612 36 227 0.0 1.6 0.00 0.00 0.00 35 1014.6
20260901224108 37 272 1.6 1.6 0.00 0.00 0.00 34 1014.4
20260901223603 38 232 1.6 4.8 0.00 0.00 0.00 33 1014.7
20260901223104 38 268 3.2 6.4 0.00 0.00 0.00 33 1014.6
20260901222600 37 211 3.2 6.4 0.00 0.00 0.00 33 1014.5
20260901222055 38 237 3.2 6.4 0.00 0.00 0.00 33 1014.5
20260901221552 38 61 3.2 4.8 0.00 0.00 0.00 33 1014.4
20260901221047 38 207 4.8 6.4 0.00 0.00 0.00 31 1014.5
20260901220546 38 213 6.4 6.4 0.00 0.00 0.00 31 1014.6
20260901220045 38 219 4.8 8.0 0.00 0.00 0.00 32 1014.7
20260901215543 37 272 3.2 4.8 0.00 0.00 0.00 34 1014.7
20260901215038 36 270 1.6 4.8 0.00 0.00 0.00 35 1014.6
20260901214537 36 169 0.0 1.6 0.00 0.00 0.00 35 1014.8
20260901214032 37 111 9.7 12.9 0.00 0.00 0.00 34 1014.6
20260901213532 37 120 6.4 8.0 0.00 0.00 0.00 33 1014.7
20260901213032 39 232 8.0 11.3 0.00 0.00 0.00 31 1014.7
20260901212531 38 226 0.0 0.0 0.00 0.00 0.00 32 1014.9
20260901212028 38 166 0.0 1.6 0.00 0.00 0.00 31 1014.8
20260901211523 38 209 9.7 12.9 0.00 0.00 0.00 32 1014.9
20260901211020 38 201 4.8 6.4 0.00 0.00 0.00 32 1015.0
20260901210515 38 207 8.0 8.0 0.00 0.00 0.00 31 1014.8
20260901210011 39 185 8.0 11.3 0.00 0.00 0.00 32 1015.2
20260901205506 38 284 3.2 4.8 0.00 0.00 0.00 32 1015.3
20260901205000 37 218 9.7 11.3 0.00 0.00 0.00 33 1015.2
20260901204457 37 251 0.0 0.0 0.00 0.00 0.00 34 1015.3
20260901203956 36 241 3.2 4.8 0.00 0.00 0.00 37 1015.4
20260901203451 37 199 6.4 8.0 0.00 0.00 0.00 35 1015.3
20260901202946 37 175 9.7 12.9 0.00 0.00 0.00 33 1015.5
20260901202442 37 255 1.6 1.6 0.00 0.00 0.00 35 1015.5
20260901201937 36 219 4.8 6.4 0.00 0.00 0.00 35 1015.7
20260901201432 36 249 4.8 6.4 0.00 0.00 0.00 39 1015.7
20260901200931 36 240 1.6 1.6 0.00 0.00 0.00 37 1015.8
20260901200427 36 223 1.6 1.6 0.00 0.00 0.00 39 1015.7
20260901195925 37 62 3.2 4.8 0.00 0.00 0.00 36 1015.9
20260901195419 36 206 4.8 6.4 0.00 0.00 0.00 38 1015.9
20260901194914 36 75 1.6 1.6 0.00 0.00 0.00 40 1016.1
20260901194409 36 260 0.0 0.0 0.00 0.00 0.00 38 1016.1
20260901193905 36 303 1.6 1.6 0.00 0.00 0.00 37 1016.2
20260901193404 37 54 3.2 4.8 0.00 0.00 0.00 36 1016.3
20260901192903 36 270 1.6 1.6 0.00 0.00 0.00 37 1016.5
20260901192359 35 291 1.6 1.6 0.00 0.00 0.00 38 1016.4
20260901191855 36 251 1.6 1.6 0.00 0.00 0.00 38 1016.4
20260901191351 37 264 3.2 4.8 0.00 0.00 0.00 35 1016.7
20260901190847 36 261 3.2 4.8 0.00 0.00 0.00 37 1016.7
20260901190346 37 262 1.6 1.6 0.00 0.00 0.00 35 1016.6
20260901185845 37 316 3.2 4.8 0.00 0.00 0.00 35 1016.7
20260901185344 37 32 3.2 6.4 0.00 0.00 0.00 37 1016.8
20260901184839 35 94 6.4 8.0 0.00 0.00 0.00 38 1016.7
20260901184335 36 191 4.8 6.4 0.00 0.00 0.00 39 1016.9
20260901183830 36 268 0.0 0.0 0.00 0.00 0.00 37 1017.1
20260901183329 38 263 3.2 4.8 0.00 0.00 0.00 35 1016.9
20260901182826 37 250 3.2 4.8 0.00 0.00 0.00 36 1017.1
20260901182325 36 236 8.0 8.0 0.00 0.00 0.00 38 1017.1
20260901181820 37 22 3.2 4.8 0.00 0.00 0.00 36 1017.1
20260901181315 37 284 6.4 8.0 0.00 0.00 0.00 34 1017.4
20260901180814 37 306 4.8 6.4 0.00 0.00 0.00 37 1017.5
20260901180314 35 263 1.6 1.6 0.00 0.00 0.00 41 1017.6
20260901175813 36 235 6.4 6.4 0.00 0.00 0.00 40 1017.7
20260901175308 37 230 8.0 8.0 0.00 0.00 0.00 37 1017.7
20260901174802 36 113 8.0 8.0 0.00 0.00 0.00 38 1017.7
20260901174258 36 236 4.8 6.4 0.00 0.00 0.00 38 1017.7
20260901173754 36 183 8.0 11.3 0.00 0.00 0.00 38 1017.8
20260901173254 37 198 6.4 12.9 0.00 0.00 0.00 38 1018.1
20260901172751 36 242 3.2 6.4 0.00 0.00 0.00 39 1018.1
20260901172250 36 242 0.0 0.0 0.00 0.00 0.00 40 1017.9
20260901171748 35 233 3.2 4.8 0.00 0.00 0.00 42 1018.2
20260901171248 36 304 4.8 6.4 0.00 0.00 0.00 41 1018.0
20260901170747 36 293 3.2 4.8 0.00 0.00 0.00 40 1018.3
20260901170246 36 327 4.8 4.8 0.00 0.00 0.00 41 1018.3
20260901165745 36 178 11.3 16.1 0.00 0.00 0.00 40 1018.1
20260901165240 35 288 3.2 4.8 0.00 0.00 0.00 42 1018.2
20260901164737 36 297 6.4 8.0 0.00 0.00 0.00 42 1018.5
20260901164232 36 192 9.7 11.3 0.00 0.00 0.00 42 1018.4
20260901163727 35 168 3.2 4.8 0.00 0.00 0.00 45 1018.6
20260901163226 35 264 4.8 4.8 0.00 0.00 0.00 44 1018.6
20260901162721 35 227 6.4 8.0 0.00 0.00 0.00 44 1018.8
20260901162221 35 211 9.7 11.3 0.00 0.00 0.00 43 1018.7
20260901161720 35 183 8.0 11.3 0.00 0.00 0.00 45 1018.6
20260901161215 35 285 3.2 4.8 0.00 0.00 0.00 46 1018.9
20260901160711 34 181 8.0 8.0 0.00 0.00 0.00 47 1018.7
20260901160206 33 191 6.4 8.0 0.00 0.00 0.00 47 1018.7
20260901155705 34 239 3.2 4.8 0.00 0.00 0.00 47 1018.6
20260901155200 33 290 1.6 1.6 0.00 0.00 0.00 48 1018.8
20260901154655 33 295 1.6 4.8 0.00 0.00 0.00 48 1018.6
20260901154150 32 274 3.2 6.4 0.00 0.00 0.00 51 1018.8
20260901153645 32 230 8.0 11.3 0.00 0.00 0.00 52 1018.7
20260901153140 32 189 11.3 17.7 0.00 0.00 0.00 52 1018.8
20260901152634 32 202 3.2 4.8 0.00 0.00 0.00 53 1018.8
20260901152132 31 208 3.2 4.8 0.00 0.00 0.00 54 1018.9
20260901151628 31 269 8.0 11.3 0.00 0.00 0.00 54 1018.8
20260901151127 31 145 6.4 8.0 0.00 0.00 0.00 54 1018.8
20260901150621 31 221 3.2 6.4 0.00 0.00 0.00 54 1018.8
20260901150120 31 200 8.0 11.3 0.00 0.00 0.00 54 1018.7
20260901145618 31 206 9.7 11.3 0.00 0.00 0.00 54 1018.7
20260901145117 31 217 8.0 8.0 0.00 0.00 0.00 56 1018.8
20260901144614 31 196 3.2 6.4 0.00 0.00 0.00 56 1018.6
20260901144109 30 231 6.4 6.4 0.00 0.00 0.00 57 1018.7
20260901143604 30 167 3.2 4.8 0.00 0.00 0.00 57 1018.9
20260901143100 30 207 6.4 6.4 0.00 0.00 0.00 58 1018.9
20260901142555 30 193 1.6 1.6 0.00 0.00 0.00 58 1018.9
20260901142054 29 230 3.2 4.8 0.00 0.00 0.00 59 1018.8
20260901141549 29 208 0.0 0.0 0.00 0.00 0.00 60 1018.8
20260901141044 30 224 0.0 0.0 0.00 0.00 0.00 59 1018.9
20260901140543 29 199 0.0 0.0 0.00 0.00 0.00 59 1019.0
20260901140038 29 249 0.0 0.0 0.00 0.00 0.00 61 1018.9
20260901135537 28 194 0.0 0.0 0.00 0.00 0.00 61 1018.7
20260901135033 28 207 0.0 0.0 0.00 0.00 0.00 61 1019.0
20260901134529 28 251 0.0 0.0 0.00 0.00 0.00 62 1019.0
20260901134028 28 224 0.0 0.0 0.00 0.00 0.00 63 1019.0
20260901133527 27 220 0.0 0.0 0.00 0.00 0.00 66 1018.8
20260901133027 27 208 0.0 0.0 0.00 0.00 0.00 67 1018.9
20260901132527 26 255 0.0 0.0 0.00 0.00 0.00 68 1018.7
20260901132026 26 209 0.0 0.0 0.00 0.00 0.00 71 1018.8
20260901131521 25 197 0.0 0.0 0.00 0.00 0.00 74 1018.7
20260901131016 24 272 0.0 0.0 0.00 0.00 0.00 77 1018.6
20260901130510 23 267 0.0 0.0 0.00 0.00 0.00 80 1018.6
20260901130009 22 270 0.0 0.0 0.00 0.00 0.00 83 1018.8
20260901125508 22 276 0.0 0.0 0.00 0.00 0.00 85 1018.6
20260901125008 21 258 0.0 0.0 0.00 0.00 0.00 87 1018.7
20260901124504 21 269 0.0 0.0 0.00 0.00 0.00 88 1018.5
20260901123958 21 268 0.0 0.0 0.00 0.00 0.00 88 1018.5
20260901123453 21 268 0.0 0.0 0.00 0.00 0.00 89 1018.5
20260901122951 20 268 0.0 0.0 0.00 0.00 0.00 90 1018.3
20260901122450 20 250 0.0 0.0 0.00 0.00 0.00 90 1018.4
20260901121945 20 263 0.0 0.0 0.00 0.00 0.00 90 1018.2
20260901121440 20 263 0.0 0.0 0.00 0.00 0.00 90 1018.3
20260901120935 20 261 0.0 0.0 0.00 0.00 0.00 90 1018.3
20260901120434 20 261 0.0 0.0 0.00 0.00 0.00 90 1018.2
20260901115930 20 250 0.0 0.0 0.00 0.00 0.00 89 1018.0
20260901115430 20 253 0.0 0.0 0.00 0.00 0.00 88 1018.0
20260901114928 20 270 0.0 0.0 0.00 0.00 0.00 88 1017.8
20260901114423 21 278 0.0 0.0 0.00 0.00 0.00 87 1017.9
20260901113921 20 279 0.0 0.0 0.00 0.00 0.00 87 1017.7
20260901113420 20 280 0.0 0.0 0.00 0.00 0.00 87 1017.9
20260901112916 21 268 0.0 0.0 0.00 0.00 0.00 87 1017.7
20260901112411 21 268 0.0 0.0 0.00 0.00 0.00 87 1017.5
20260901111906 21 261 0.0 0.0 0.00 0.00 0.00 87 1017.7
20260901111404 21 267 0.0 0.0 0.00 0.00 0.00 86 1017.8
20260901110903 21 269 0.0 0.0 0.00 0.00 0.00 86 1017.7
20260901110359 21 269 0.0 0.0 0.00 0.00 0.00 86 1017.6
20260901105855 21 268 0.0 0.0 0.00 0.00 0.00 86 1017.4
20260901105350 21 269 0.0 0.0 0.00 0.00 0.00 85 1017.5
20260901104846 21 265 0.0 0.0 0.00 0.00 0.00 85 1017.5
20260901104341 21 266 0.0 0.0 0.00 0.00 0.00 85 1017.5
20260901103837 21 271 0.0 0.0 0.00 0.00 0.00 85 1017.4
20260901103336 21 272 0.0 0.0 0.00 0.00 0.00 85 1017.4
20260901102832 21 272 0.0 0.0 0.00 0.00 0.00 85 1017.4
20260901102331 21 270 0.0 0.0 0.00 0.00 0.00 85 1017.3
20260901101827 21 275 0.0 0.0 0.00 0.00 0.00 85 1017.4
20260901101327 21 267 0.0 0.0 0.00 0.00 0.00 84 1017.4
20260901100826 21 268 0.0 0.0 0.00 0.00 0.00 84 1017.2
20260901100321 21 267 0.0 0.0 0.00 0.00 0.00 84 1017.4
20260901095820 21 267 0.0 0.0 0.00 0.00 0.00 84 1017.3
20260901095318 21 270 0.0 0.0 0.00 0.00 0.00 84 1017.4
20260901094812 21 275 0.0 0.0 0.00 0.00 0.00 84 1017.1
20260901094307 21 268 0.0 0.0 0.00 0.00 0.00 85 1017.3
20260901093802 21 261 0.0 0.0 0.00 0.00 0.00 85 1017.4
20260901093301 21 203 0.0 0.0 0.00 0.00 0.00 84 1017.1
20260901092757 21 288 0.0 0.0 0.00 0.00 0.00 85 1017.1
20260901092253 21 259 0.0 0.0 0.00 0.00 0.00 85 1017.2
20260901091748 21 266 0.0 0.0 0.00 0.00 0.00 85 1017.1
20260901091244 21 280 0.0 0.0 0.00 0.00 0.00 84 1017.1
20260901090744 21 283 0.0 0.0 0.00 0.00 0.00 84 1017.0
20260901090239 21 267 0.0 0.0 0.00 0.00 0.00 84 1017.1
20260901085734 21 273 0.0 0.0 0.00 0.00 0.00 83 1017.2
20260901085230 21 272 0.0 0.0 0.00 0.00 0.00 83 1017.1
20260901084726 21 257 0.0 0.0 0.00 0.00 0.00 82 1017.2
20260901084222 21 279 0.0 0.0 0.00 0.00 0.00 81 1016.8
20260901083717 21 271 0.0 0.0 0.00 0.00 0.00 82 1017.0
20260901083216 21 266 0.0 0.0 0.00 0.00 0.00 82 1016.9
20260901082715 21 285 0.0 0.0 0.00 0.00 0.00 82 1016.8
20260901082211 21 259 0.0 0.0 0.00 0.00 0.00 81 1016.9
20260901081706 21 279 0.0 0.0 0.00 0.00 0.00 82 1016.8
20260901081206 21 277 0.0 0.0 0.00 0.00 0.00 81 1016.8
20260901080701 21 271 0.0 0.0 0.00 0.00 0.00 82 1016.7
20260901080159 21 289 0.0 0.0 0.00 0.00 0.00 82 1016.8
20260901075655 21 272 0.0 0.0 0.00 0.00 0.00 82 1016.7
20260901075154 21 309 0.0 0.0 0.00 0.00 0.00 81 1016.8
20260901074654 21 275 0.0 0.0 0.00 0.00 0.00 81 1016.5
20260901074149 21 287 0.0 0.0 0.00 0.00 0.00 80 1016.7
20260901073645 21 347 0.0 0.0 0.00 0.00 0.00 79 1016.7
20260901073141 21 291 0.0 0.0 0.00 0.00 0.00 81 1016.8
20260901072636 21 319 0.0 0.0 0.00 0.00 0.00 81 1016.7
20260901072131 21 294 0.0 0.0 0.00 0.00 0.00 80 1016.7
20260901071631 21 275 0.0 0.0 0.00 0.00 0.00 79 1016.9
20260901071131 21 263 0.0 0.0 0.00 0.00 0.00 80 1016.7
20260901070625 21 228 0.0 0.0 0.00 0.00 0.00 79 1016.8
20260901070121 21 218 0.0 0.0 0.00 0.00 0.00 80 1016.6
20260901065614 21 268 0.0 0.0 0.00 0.00 0.00 81 1016.6
20260901065114 21 267 0.0 0.0 0.00 0.00 0.00 82 1016.8
20260901064612 21 243 0.0 0.0 0.00 0.00 0.00 82 1016.8
20260901064108 21 240 0.0 0.0 0.00 0.00 0.00 82 1016.8
20260901063604 21 236 0.0 0.0 0.00 0.00 0.00 82 1016.7
20260901063100 21 278 0.0 0.0 0.00 0.00 0.00 82 1016.8
20260901062555 21 265 0.0 0.0 0.00 0.00 0.00 82 1017.0
20260901062052 21 277 0.0 0.0 0.00 0.00 0.00 82 1016.8
20260901061548 21 276 0.0 0.0 0.00 0.00 0.00 82 1016.7
20260901061043 21 270 0.0 0.0 0.00 0.00 0.00 82 1016.7
20260901060543 21 262 0.0 0.0 0.00 0.00 0.00 82 1016.8
20260901060038 21 273 0.0 0.0 0.00 0.00 0.00 82 1017.0
20260901055533 21 267 0.0 0.0 0.00 0.00 0.00 82 1016.7
20260901055030 21 278 0.0 0.0 0.00 0.00 0.00 81 1016.7
20260901054526 21 275 0.0 0.0 0.00 0.00 0.00 81 1016.7
20260901054022 21 264 0.0 0.0 0.00 0.00 0.00 81 1016.8
20260901053518 21 274 0.0 0.0 0.00 0.00 0.00 81 1016.7
20260901053014 21 273 0.0 0.0 0.00 0.00 0.00 80 1016.6
20260901052514 21 273 0.0 0.0 0.00 0.00 0.00 80 1016.8
20260901052014 21 253 0.0 0.0 0.00 0.00 0.00 80 1016.8
20260901051509 21 263 0.0 0.0 0.00 0.00 0.00 80 1016.7
20260901051007 21 279 0.0 0.0 0.00 0.00 0.00 80 1016.6
20260901050503 21 261 0.0 0.0 0.00 0.00 0.00 79 1016.5
20260901045958 21 284 0.0 0.0 0.00 0.00 0.00 79 1016.5
20260901045453 21 276 0.0 0.0 0.00 0.00 0.00 79 1016.6
20260901044948 21 263 0.0 0.0 0.00 0.00 0.00 79 1016.6
20260901044443 21 253 0.0 0.0 0.00 0.00 0.00 78 1016.6
20260901043939 21 262 0.0 0.0 0.00 0.00 0.00 78 1016.6
20260901043436 22 266 0.0 0.0 0.00 0.00 0.00 78 1016.6
20260901042935 22 277 0.0 0.0 0.00 0.00 0.00 77 1016.2
20260901042435 22 248 0.0 0.0 0.00 0.00 0.00 77 1016.6
20260901041930 22 265 0.0 0.0 0.00 0.00 0.00 77 1016.4
20260901041425 22 238 0.0 0.0 0.00 0.00 0.00 76 1016.5
20260901040925 22 256 0.0 0.0 0.00 0.00 0.00 76 1016.6
20260901040420 22 283 0.0 0.0 0.00 0.00 0.00 76 1016.4
20260901035919 22 281 0.0 0.0 0.00 0.00 0.00 76 1016.5
20260901035418 22 272 0.0 0.0 0.00 0.00 0.00 76 1016.2
20260901034917 22 284 0.0 0.0 0.00 0.00 0.00 75 1016.5
20260901034412 22 273 0.0 0.0 0.00 0.00 0.00 75 1016.4
20260901033907 22 277 0.0 0.0 0.00 0.00 0.00 75 1016.5
20260901033406 22 278 0.0 0.0 0.00 0.00 0.00 75 1016.3
20260901032904 22 255 0.0 0.0 0.00 0.00 0.00 74 1016.2
20260901032404 23 285 0.0 0.0 0.00 0.00 0.00 73 1016.3
20260901031859 23 238 0.0 0.0 0.00 0.00 0.00 73 1016.3
20260901031355 23 268 0.0 0.0 0.00 0.00 0.00 73 1016.5
20260901030854 23 272 0.0 0.0 0.00 0.00 0.00 72 1016.3
20260901030350 23 271 0.0 0.0 0.00 0.00 0.00 71 1016.2
20260901025848 23 281 0.0 0.0 0.00 0.00 0.00 71 1016.2
20260901025344 23 271 0.0 0.0 0.00 0.00 0.00 68 1016.1
20260901024838 23 258 0.0 0.0 0.00 0.00 0.00 69 1016.1
20260901024338 23 262 0.0 0.0 0.00 0.00 0.00 70 1015.9
20260901023836 23 272 0.0 0.0 0.00 0.00 0.00 69 1015.8
20260901023331 23 258 0.0 0.0 0.00 0.00 0.00 69 1015.6
20260901022826 24 268 0.0 0.0 0.00 0.00 0.00 69 1015.7
20260901022322 24 259 0.0 0.0 0.00 0.00 0.00 68 1015.7
20260901021817 24 279 0.0 0.0 0.00 0.00 0.00 68 1015.4
20260901021313 25 273 0.0 0.0 0.00 0.00 0.00 67 1015.4
20260901020808 25 245 0.0 0.0 0.00 0.00 0.00 67 1015.2
20260901020303 25 250 0.0 0.0 0.00 0.00 0.00 66 1015.2
20260901015803 25 286 0.0 0.0 0.00 0.00 0.00 66 1015.1
20260901015300 25 255 0.0 0.0 0.00 0.00 0.00 65 1015.3
20260901014759 25 240 0.0 0.0 0.00 0.00 0.00 64 1015.2
20260901014255 26 250 0.0 0.0 0.00 0.00 0.00 64 1015.1
20260901013751 26 277 0.0 0.0 0.00 0.00 0.00 63 1015.1
20260901013246 26 278 0.0 0.0 0.00 0.00 0.00 62 1015.0
20260901012741 26 269 0.0 0.0 0.00 0.00 0.00 61 1015.0
20260901012241 26 270 0.0 0.0 0.00 0.00 0.00 60 1014.9
20260901011737 27 290 0.0 0.0 0.00 0.00 0.00 59 1014.8
20260901011232 27 233 0.0 0.0 0.00 0.00 0.00 60 1014.7
20260901010726 28 284 0.0 0.0 0.00 0.00 0.00 57 1014.8
20260901010221 28 245 0.0 0.0 0.00 0.00 0.00 57 1014.9
20260901005719 28 285 0.0 0.0 0.00 0.00 0.00 53 1014.7
20260901005215 29 241 0.0 0.0 0.00 0.00 0.00 53 1014.8
20260901004715 30 286 0.0 0.0 0.00 0.00 0.00 52 1014.5
20260901004210 30 286 0.0 0.0 0.00 0.00 0.00 51 1014.8
20260901003709 31 280 0.0 0.0 0.00 0.00 0.00 46 1014.8